Location: Fours
(44.3167°N, 6.7000°E)
Time: 17:09:23
(UTC+00:00)

PSLV R/B - Pass Details

Date: 30 November 2020
Orbit: 568 x 597 km, 98.2° (Epoch: 22 January)

Event Time Altitude Azimuth Distance (km) Brightness Sun altitude
Exits shadow 17:36:20 37° 66° (ENE) 895 4.3 -17.5°
Maximum altitude 17:37:11 43° 99° (E) 811 4.2 -17.6°
Drops below altitude 10° 17:41:02 10° 172° (S) 1,864 6.6 -18.3°
Sets 17:43:15 0° 179° (S) 2,758 7.5 -18.7°
